Regional Weather Roundup
Issued by NWS

Home | Current Version | Previous Version | Text Only | Print | Product List | Glossary On
Versions: 1 2 3 4 5 6 7 8 9 10 11 12 13 14 15 16 17 18 19 20 21 22 23 24 25 26 27 28 29 30 31 32 33 34 35 36 37 38 39 40 41 42 43 44 45 46 47 48 49 50
000
ASUS45 KABQ 070210
RWRNM
NEW MEXICO REGIONAL WEATHER ROUNDUP
NATIONAL WEATHER SERVICE ALBUQUERQUE NM
700 PM MST SAT FEB 06 2016

NOTE: "FAIR" MEANS FEW OR NO CLOUDS BELOW 12,000 FEET AGL WITH NO
       SIGNIFICANT WEATHER OR OBSTRUCTIONS TO VISION.

      THIS PRODUCT IS RELEASED AS TWO VERSIONS.  ONE VERSION NEAR
      THE TOP OF THE HOUR CONTAINING PRELIMINARY DATA FROM ALBUQUERQUE
      AND OTHER STATIONS.  A FINAL VERSION WITH ADDITIONAL DATA IS
      ISSUED ABOUT 10 MINUTES AFTER THE HOUR.

NMZ501-503-504-510>518-070300-
NORTHWEST PLATEAU/NORTHCENTRAL MOUNTAINS

CITY           SKY/WX    TMP DP  RH WIND       PRES   REMARKS
FARMINGTON     CLOUDY    32  17  54 W7        30.38R WCI  26
LOS ALAMOS     CLOUDY    35  13  42 NW6       30.34S WCI  29
SANTA FE       CLOUDY    33  13  43 NW6       30.31S WCI  28
TAOS           CLOUDY    21  10  63 N5        30.35S WCI  15
ANGEL FIRE     FAIR      25  11  56 W12       30.32S WCI  14

$$
NMZ402-403-502-505>509-070300-
WESTCENTRAL MOUNTAINS/SOUTHWEST MOUNTAINS

CITY           SKY/WX    TMP DP  RH WIND       PRES   REMARKS
GALLUP         CLEAR     29  18  63 W3        30.40R
GRANTS         CLEAR     29  10  44 NW5       30.41R WCI  24
SILVER CITY      N/A     39   1  20 CALM      30.36R

$$
NMZ407-409-411-412-070300-
SOUTHERN DESERTS

CITY           SKY/WX    TMP DP  RH WIND       PRES   REMARKS
LORDSBURG      FAIR      39   9  28 S7        30.32R WCI  34
DEMING         PTCLDY    43   3  19 CALM      30.33R
LAS CRUCES     PTCLDY    37   4  25 W3        30.34R
HOLLOMAN AFB   CLOUDY    43   4  20 NW6       30.30R
ALAMOGORDO     CLOUDY    39   0  19 NE8       30.31S WCI  34
T OR C         CLEAR     45   3  17 SW5       30.32R

$$
NMZ519>523-070300-
CENTRAL VALLEYS/CENTRAL HIGHLANDS

CITY           SKY/WX    TMP DP  RH WIND       PRES   REMARKS
ALBUQUERQUE    CLOUDY    42  15  33 N9        30.36R
MORIARTY ARPT  FAIR      38  10  31 N3        30.32S
CLINES CORNERS CLOUDY    34  13  41 NW24G36   30.25F WCI  21
BELEN          FAIR      38   5  26 CALM      30.35R
SOCORRO        FAIR      37   8  30 W5        30.34R WCI  33

$$
NMZ524>526-539-540-070300-
SOUTHCENTRAL MOUNTAINS

CITY           SKY/WX    TMP DP  RH WIND       PRES   REMARKS
RUIDOSO          N/A     39   1  20 NE6       30.32S WCI  35

$$
NMZ527>531-070300-
NORTHEAST HIGHLANDS/NORTHEAST PLAINS

CITY           SKY/WX    TMP DP  RH WIND       PRES   REMARKS
LAS VEGAS      CLOUDY    37  17  44 N12       30.22R WCI  29
RATON          CLOUDY    35  13  40 W7        30.20R WCI  29
CLAYTON        CLOUDY    38   8  29 SW9       30.18R WCI  31

$$
NMZ532>537-070300-
EASTCENTRAL PLAINS

CITY           SKY/WX    TMP DP  RH WIND       PRES   REMARKS
TUCUMCARI      CLOUDY    37  10  32 CALM      30.14S
CANNON AFB     CLOUDY    42   9  26 SW8       30.19S
CLOVIS AIRPORT CLOUDY    36   9  32 SW9       30.21S WCI  29

$$
NMZ028-029-538-070300-
SOUTHEAST PLAINS

CITY           SKY/WX    TMP DP  RH WIND       PRES   REMARKS
ROSWELL        CLEAR     42  12  29 SW3       30.21R
ARTESIA        CLEAR     45   9  23 SW12      30.22S
CARLSBAD       CLEAR     46   7  20 W8        30.22S
HOBBS          CLEAR     39   5  24 CALM      30.25F


$$



USA.gov is the U.S. government's official web portal to all federal, state and local government web resources and services.